Location: ?
(35.4554°N, 139.3092°E)
Time: 22:56:02
(UTC+00:00)

ALOS - Pass Details

Date: 21 April 2021
Orbit: 682 x 685 km, 97.9° (Epoch: 10 May)

Event Time Altitude Azimuth Distance (km) Brightness Sun altitude
Rises 19:21:36 0° 4° (N) 3,051 6.0 -8.6°
Reaches altitude 10° 19:23:55 10° 358° (N) 2,131 5.1 -8.2°
Maximum altitude 19:28:21 44° 287° (WNW) 937 2.7 -7.3°
Drops below altitude 10° 19:32:44 10° 215° (SW) 2,118 4.3 -6.5°
Sets 19:35:03 0° 209° (SSW) 3,029 5.1 -6.0°
